Location: Unspecified
(58.7730°N, 5.8460°E)
Time: 19:30:09
(UTC+01:00)

Resurs 1-4 Rocket - Visible Passes

Search period start: 30 January 2015 00:00
Search period end: 09 February 2015 00:00
Orbit: 801 x 814 km, 98.4° (Epoch: 29 January)

Date Brightness Start Highest point End Pass type
(mag) Time Alt. Az. Time Alt. Az. Time Alt. Az.
30 Jan 3.7 03:55:04 10° NNE 03:58:38 32° ENE 03:58:38 32° ENE visible
30 Jan 2.3 05:34:57 10° NNE 05:39:45 52° NW 05:39:45 52° NW visible
30 Jan 3.6 07:15:42 10° N 07:19:04 17° NW 07:20:50 15° WNW visible
31 Jan 4.1 03:30:50 10° NNE 03:34:00 24° ENE 03:34:00 24° ENE visible
31 Jan 2.2 05:10:24 10° NNE 05:15:07 66° NNW 05:15:07 66° NNW visible
31 Jan 3.3 06:50:56 10° N 06:54:57 22° NW 06:56:12 20° WNW visible
01 Feb 4.5 03:06:49 10° NE 03:09:23 18° ENE 03:09:23 18° ENE visible
01 Feb 2.4 04:45:55 10° NNE 04:50:28 64° NE 04:50:28 64° NE visible
01 Feb 3.0 06:26:15 10° N 06:30:46 28° NW 06:31:34 27° WNW visible
02 Feb 4.9 02:43:14 10° NE 02:44:44 13° ENE 02:44:44 13° ENE visible
02 Feb 2.9 04:21:28 10° NNE 04:25:50 50° ENE 04:25:50 50° ENE visible
02 Feb 2.6 06:01:37 10° N 06:06:30 38° WNW 06:06:56 37° WNW visible
02 Feb 3.9 07:42:42 10° N 07:45:09 13° NW 07:47:28 10° WNW visible
03 Feb 3.5 03:57:06 10° NNE 04:01:12 36° ENE 04:01:12 36° ENE visible
03 Feb 2.2 05:37:01 10° NNE 05:42:11 51° WNW 05:42:18 51° WNW visible
03 Feb 3.7 07:17:47 10° N 07:21:06 17° NW 07:23:24 13° WNW visible
04 Feb 4.0 03:32:52 10° NNE 03:36:34 26° ENE 03:36:34 26° ENE visible
04 Feb 2.0 05:12:28 10° NNE 05:17:40 71° NW 05:17:40 71° NW visible
04 Feb 3.4 06:53:01 10° N 06:56:59 21° NW 06:58:46 18° WNW visible
05 Feb 4.4 03:08:48 10° NE 03:11:56 19° ENE 03:11:56 19° ENE visible
05 Feb 2.1 04:47:58 10° NNE 04:53:03 78° NE 04:53:03 78° NE visible
05 Feb 3.1 06:28:20 10° N 06:32:48 28° NW 06:34:09 25° WNW visible
06 Feb 4.8 02:45:09 10° NE 02:47:19 13° ENE 02:47:19 13° ENE visible
06 Feb 2.6 04:23:32 10° NNE 04:28:25 57° E 04:28:25 57° E visible
06 Feb 2.7 06:03:41 10° N 06:08:33 36° WNW 06:09:31 34° W visible
06 Feb 3.9 07:44:50 10° N 07:47:10 13° NW 07:49:23 10° WNW visible
07 Feb 3.2 03:59:10 10° NNE 04:03:48 40° E 04:03:48 40° E visible
07 Feb 2.3 05:39:05 10° N 05:44:15 50° WNW 05:44:54 47° W visible
07 Feb 3.7 07:19:54 10° N 07:23:07 16° NW 07:26:00 11° WNW visible
08 Feb 3.8 03:34:54 10° NNE 03:39:10 29° E 03:39:10 29° E visible
08 Feb 2.0 05:14:32 10° NNE 05:19:52 69° WNW 05:20:16 66° W visible
08 Feb 3.4 06:55:07 10° N 06:59:01 21° NW 07:01:22 15° W visible
